,,,PA_Meas_PMT16A,,PR_Meas_QMR101_102,,RH_Meas_QMH101,,SR_Meas_QMS101,,TA_Meas_QMH101,,GenWind,,GenWind,
date,time,status,PA,status,PR,status,RH,status,SR,status,TA,status,DirAvg,status,SpdAvg,
2010-04-23, 00:00:04,VALID,1009.82,VALID,0,VALID,101.415,VALID,0,VALID,25.9141,VALID,356,VALID,0,
2010-04-23, 00:01:04,VALID,1009.81,VALID,0,VALID,101.423,VALID,0,VALID,25.9141,VALID,356,VALID,0,
2010-04-23, 00:02:04,VALID,1009.77,VALID,0,VALID,101.423,VALID,0,VALID,25.9336,VALID,356,VALID,0,
2010-04-23, 00:03:04,VALID,1009.76,VALID,0,VALID,101.453,VALID,0,VALID,25.9336,VALID,356,VALID,0,
2010-04-23, 00:04:04,VALID,1009.73,VALID,0,VALID,101.43,VALID,0.105969,VALID,25.9336,VALID,356,VALID,0,
2010-04-23, 00:05:04,VALID,1009.73,VALID,0,VALID,101.423,VALID,0,VALID,25.9356,VALID,356,VALID,0,
2010-04-23, 00:06:04,VALID,1009.72,VALID,0,VALID,101.415,VALID,0,VALID,25.9141,VALID,356,VALID,0,
2010-04-23, 00:07:04,VALID,1009.75,VALID,0,VALID,101.4,VALID,0,VALID,25.9356,VALID,356,VALID,0,
2010-04-23, 00:08:04,VALID,1009.71,VALID,0,VALID,101.407,VALID,0,VALID,25.9356,VALID,356,VALID,0,
2010-04-23, 00:09:04,VALID,1009.69,VALID,0,VALID,101.43,VALID,0,VALID,25.9141,VALID,356,VALID,0,
2010-04-23, 00:10:04,VALID,1009.69,VALID,0,VALID,101.415,VALID,0.105969,VALID,25.8946,VALID,356,VALID,0,
2010-04-23, 00:11:04,VALID,1009.68,VALID,0,VALID,101.438,VALID,0,VALID,25.9161,VALID,356,VALID,0,
2010-04-23, 00:12:04,VALID,1009.64,VALID,0,VALID,101.453,VALID,0.105969,VALID,25.8751,VALID,356,VALID,0.169141,
2010-04-23, 00:13:04,VALID,1009.62,VALID,0,VALID,101.445,VALID,0,VALID,25.8751,VALID,356,VALID,0.2,
2010-04-23, 00:14:04,VALID,1009.61,VALID,0,VALID,101.445,VALID,0,VALID,25.8966,VALID,356,VALID,0.0402344,
2010-04-23, 00:15:04,VALID,1009.64,VALID,0,VALID,101.445,VALID,0.105969,VALID,25.8556,VALID,356,VALID,0,
2010-04-23, 00:16:04,VALID,1009.6,VALID,0,VALID,101.491,VALID,0,VALID,25.8556,VALID,356,VALID,0,
2010-04-23, 00:17:04,VALID,1009.56,VALID,0,VALID,101.484,VALID,0.105969,VALID,25.8556,VALID,356,VALID,0,
2010-04-23, 00:18:04,VALID,1009.54,VALID,0,VALID,101.476,VALID,0,VALID,25.8381,VALID,356,VALID,0,
2010-04-23, 00:19:04,VALID,1009.51,VALID,0,VALID,101.499,VALID,0,VALID,25.7971,VALID,356,VALID,0,
2010-04-23, 00:20:04,VALID,1009.52,VALID,0,VALID,101.529,VALID,0.105969,VALID,25.8186,VALID,356,VALID,0,
2010-04-23, 00:21:04,VALID,1009.49,VALID,0,VALID,101.567,VALID,0,VALID,25.8186,VALID,356,VALID,0,
2010-04-23, 00:22:04,VALID,1009.49,VALID,0,VALID,101.59,VALID,0,VALID,25.8186,VALID,356,VALID,0,
2010-04-23, 00:23:04,VALID,1009.47,VALID,0,VALID,101.583,VALID,0.105969,VALID,25.8166,VALID,356,VALID,0,
2010-04-23, 00:24:04,VALID,1009.45,VALID,0,VALID,101.598,VALID,0.105969,VALID,25.8166,VALID,356,VALID,0,
2010-04-23, 00:25:04,VALID,1009.42,VALID,0,VALID,101.583,VALID,0.105969,VALID,25.8186,VALID,356,VALID,0,
2010-04-23, 00:26:04,VALID,1009.43,VALID,0,VALID,101.598,VALID,0,VALID,25.7971,VALID,356,VALID,0,
2010-04-23, 00:27:04,VALID,1009.41,VALID,0,VALID,101.56,VALID,0,VALID,25.7971,VALID,356,VALID,0,
2010-04-23, 00:28:04,VALID,1009.4,VALID,0,VALID,101.545,VALID,0,VALID,25.8186,VALID,356,VALID,0,
2010-04-23, 00:29:04,VALID,1009.4,VALID,0,VALID,101.529,VALID,0,VALID,25.7776,VALID,356,VALID,0,
2010-04-23, 00:30:04,VALID,1009.41,VALID,0,VALID,101.506,VALID,0,VALID,25.7796,VALID,356,VALID,0,
2010-04-23, 00:31:04,VALID,1009.38,VALID,0,VALID,101.522,VALID,0,VALID,25.7796,VALID,356,VALID,0,
2010-04-23, 00:32:04,VALID,1009.38,VALID,0,VALID,101.545,VALID,0,VALID,25.7601,VALID,356,VALID,0,
2010-04-23, 00:33:04,VALID,1009.36,VALID,0,VALID,101.529,VALID,0,VALID,25.7601,VALID,356,VALID,0,
2010-04-23, 00:34:04,VALID,1009.34,VALID,0,VALID,101.552,VALID,0,VALID,25.7406,VALID,356,VALID,0,
2010-04-23, 00:35:04,VALID,1009.33,VALID,0,VALID,101.537,VALID,0,VALID,25.6997,VALID,356,VALID,0,
2010-04-23, 00:36:04,VALID,1009.33,VALID,0,VALID,101.575,VALID,0,VALID,25.7016,VALID,356,VALID,0,
2010-04-23, 00:37:04,VALID,1009.33,VALID,0,VALID,101.606,VALID,0,VALID,25.7016,VALID,356,VALID,0,
2010-04-23, 00:38:04,VALID,1009.31,VALID,0,VALID,101.613,VALID,0,VALID,25.6821,VALID,356,VALID,0,
2010-04-23, 00:39:04,VALID,1009.32,VALID,0,VALID,101.628,VALID,0,VALID,25.6626,VALID,356,VALID,0,
2010-04-23, 00:40:04,VALID,1009.33,VALID,0,VALID,101.667,VALID,0,VALID,25.6626,VALID,356,VALID,0,
2010-04-23, 00:41:04,VALID,1009.32,VALID,0,VALID,101.667,VALID,0,VALID,25.6431,VALID,356,VALID,0,
2010-04-23, 00:42:04,VALID,1009.3,VALID,0,VALID,101.682,VALID,0,VALID,25.6236,VALID,356,VALID,0,
2010-04-23, 00:43:04,VALID,1009.28,VALID,0,VALID,101.674,VALID,0,VALID,25.6217,VALID,356,VALID,0,
2010-04-23, 00:44:04,VALID,1009.31,VALID,0,VALID,101.705,VALID,0,VALID,25.6217,VALID,356,VALID,0,
2010-04-23, 00:45:04,VALID,1009.27,VALID,0,VALID,101.72,VALID,0,VALID,25.6217,VALID,356,VALID,0,
2010-04-23, 00:46:04,VALID,1009.27,VALID,0,VALID,101.743,VALID,0.105969,VALID,25.6217,VALID,356,VALID,0,
2010-04-23, 00:47:04,VALID,1009.26,VALID,0,VALID,101.758,VALID,0,VALID,25.6431,VALID,356,VALID,0,
2010-04-23, 00:48:04,VALID,1009.25,VALID,0,VALID,101.773,VALID,0,VALID,25.6412,VALID,356,VALID,0,
2010-04-23, 00:49:04,VALID,1009.25,VALID,0,VALID,101.766,VALID,0,VALID,25.6626,VALID,356,VALID,0,
2010-04-23, 00:50:04,VALID,1009.28,VALID,0,VALID,101.796,VALID,0,VALID,25.6626,VALID,356,VALID,0,
2010-04-23, 00:51:04,VALID,1009.25,VALID,0,VALID,101.758,VALID,0,VALID,25.6217,VALID,356,VALID,0,
2010-04-23, 00:52:04,VALID,1009.29,VALID,0,VALID,101.773,VALID,0,VALID,25.6412,VALID,356,VALID,0,
2010-04-23, 00:53:04,VALID,1009.28,VALID,0,VALID,101.766,VALID,0,VALID,25.6412,VALID,356,VALID,0,
2010-04-23, 00:54:04,VALID,1009.26,VALID,0,VALID,101.789,VALID,0,VALID,25.6431,VALID,356,VALID,0,
2010-04-23, 00:55:04,VALID,1009.25,VALID,0,VALID,101.773,VALID,0,VALID,25.6626,VALID,356,VALID,0,
2010-04-23, 00:56:04,VALID,1009.24,VALID,0,VALID,101.804,VALID,0,VALID,25.6431,VALID,356,VALID,0,
2010-04-23, 00:57:04,VALID,1009.24,VALID,0,VALID,101.773,VALID,0.105969,VALID,25.6431,VALID,356,VALID,0,
2010-04-23, 00:58:04,VALID,1009.25,VALID,0,VALID,101.789,VALID,0,VALID,25.6431,VALID,356,VALID,0,
2010-04-23, 00:59:04,VALID,1009.23,VALID,0,VALID,101.789,VALID,0,VALID,25.6431,VALID,356,VALID,0,
2010-04-23, 01:00:04,VALID,1009.22,VALID,0,VALID,101.781,VALID,0.105969,VALID,25.6217,VALID,356,VALID,0,
2010-04-23, 01:01:04,VALID,1009.19,VALID,0,VALID,101.804,VALID,0,VALID,25.6431,VALID,356,VALID,0,
2010-04-23, 01:02:04,VALID,1009.18,VALID,0,VALID,101.819,VALID,0,VALID,25.6236,VALID,356,VALID,0,
2010-04-23, 01:03:04,VALID,1009.13,VALID,0,VALID,101.804,VALID,0,VALID,25.6236,VALID,356,VALID,0,
2010-04-23, 01:04:04,VALID,1009.11,VALID,0,VALID,101.773,VALID,0,VALID,25.6041,VALID,352,VALID,0.279297,
2010-04-23, 01:05:04,VALID,1009.13,VALID,0,VALID,101.789,VALID,0,VALID,25.5827,VALID,352,VALID,0.123438,
2010-04-23, 01:06:04,VALID,1009.09,VALID,0,VALID,101.781,VALID,0,VALID,25.5651,VALID,352,VALID,0,
2010-04-23, 01:07:04,VALID,1009.08,VALID,0,VALID,101.789,VALID,0,VALID,25.5651,VALID,352,VALID,0,
2010-04-23, 01:08:04,VALID,1009.07,VALID,0,VALID,101.804,VALID,0,VALID,25.5651,VALID,352,VALID,0,
2010-04-23, 01:09:04,VALID,1009.08,VALID,0,VALID,101.819,VALID,0,VALID,25.5456,VALID,352,VALID,0.0351563,
2010-04-23, 01:10:04,VALID,1009.02,VALID,0,VALID,101.827,VALID,0,VALID,25.5456,VALID,352,VALID,0,
2010-04-23, 01:11:04,VALID,1008.98,VALID,0,VALID,101.804,VALID,0.105969,VALID,25.5242,VALID,352,VALID,0,
2010-04-23, 01:12:04,VALID,1008.96,VALID,0,VALID,101.804,VALID,0,VALID,25.5242,VALID,352,VALID,0,
2010-04-23, 01:13:04,VALID,1008.94,VALID,0,VALID,101.804,VALID,0,VALID,25.5261,VALID,352,VALID,0,
2010-04-23, 01:14:04,VALID,1008.89,VALID,0,VALID,101.819,VALID,0,VALID,25.5242,VALID,352,VALID,0,
2010-04-23, 01:15:04,VALID,1008.84,VALID,0,VALID,101.811,VALID,0,VALID,25.5047,VALID,352,VALID,0,
2010-04-23, 01:16:04,VALID,1008.85,VALID,0,VALID,101.819,VALID,0.105969,VALID,25.5242,VALID,352,VALID,0,
2010-04-23, 01:17:04,VALID,1008.82,VALID,0,VALID,101.834,VALID,0,VALID,25.5261,VALID,352,VALID,0,
2010-04-23, 01:18:04,VALID,1008.8,VALID,0,VALID,101.842,VALID,0,VALID,25.5261,VALID,352,VALID,0,
2010-04-23, 01:19:04,VALID,1008.77,VALID,0,VALID,101.85,VALID,0,VALID,25.5456,VALID,352,VALID,0,
2010-04-23, 01:20:04,VALID,1008.72,VALID,0,VALID,101.85,VALID,0,VALID,25.5456,VALID,352,VALID,0,
2010-04-23, 01:21:04,VALID,1008.73,VALID,0,VALID,101.842,VALID,0,VALID,25.5456,VALID,352,VALID,0,
2010-04-23, 01:22:04,VALID,1008.68,VALID,0,VALID,101.834,VALID,0,VALID,25.5047,VALID,352,VALID,0,
2010-04-23, 01:23:04,VALID,1008.69,VALID,0,VALID,101.85,VALID,0.105969,VALID,25.5456,VALID,352,VALID,0,
2010-04-23, 01:24:04,VALID,1008.68,VALID,0,VALID,101.834,VALID,0.105969,VALID,25.5456,VALID,352,VALID,0,
2010-04-23, 01:25:04,VALID,1008.67,VALID,0,VALID,101.842,VALID,0,VALID,25.5066,VALID,352,VALID,0,
2010-04-23, 01:26:04,VALID,1008.65,VALID,0,VALID,101.834,VALID,0,VALID,25.5066,VALID,352,VALID,0,
2010-04-23, 01:27:04,VALID,1008.64,VALID,0,VALID,101.865,VALID,0,VALID,25.4852,VALID,352,VALID,0,
2010-04-23, 01:28:04,VALID,1008.63,VALID,0,VALID,101.85,VALID,0.105969,VALID,25.4871,VALID,352,VALID,0,
2010-04-23, 01:29:04,VALID,1008.62,VALID,0,VALID,101.872,VALID,0.105969,VALID,25.4482,VALID,352,VALID,0,
2010-04-23, 01:30:04,VALID,1008.61,VALID,0,VALID,101.865,VALID,0.105969,VALID,25.4482,VALID,352,VALID,0,
2010-04-23, 01:31:04,VALID,1008.61,VALID,0,VALID,101.88,VALID,0,VALID,25.4072,VALID,352,VALID,0,
2010-04-23, 01:32:04,VALID,1008.59,VALID,0,VALID,101.888,VALID,0,VALID,25.4092,VALID,352,VALID,0,
2010-04-23, 01:33:04,VALID,1008.6,VALID,0,VALID,101.88,VALID,0,VALID,25.3702,VALID,352,VALID,0,
2010-04-23, 01:34:04,VALID,1008.6,VALID,0,VALID,101.88,VALID,0,VALID,25.3507,VALID,352,VALID,0,
2010-04-23, 01:35:04,VALID,1008.58,VALID,0,VALID,101.895,VALID,0,VALID,25.3098,VALID,352,VALID,0,
2010-04-23, 01:36:04,VALID,1008.58,VALID,0,VALID,101.888,VALID,0,VALID,25.3117,VALID,352,VALID,0,
2010-04-23, 01:37:04,VALID,1008.55,VALID,0,VALID,101.865,VALID,0.105969,VALID,25.3117,VALID,352,VALID,0,
2010-04-23, 01:38:04,VALID,1008.56,VALID,0,VALID,101.888,VALID,0,VALID,25.2727,VALID,352,VALID,0,
2010-04-23, 01:39:04,VALID,1008.58,VALID,0,VALID,101.911,VALID,0,VALID,25.2727,VALID,352,VALID,0,
2010-04-23, 01:40:04,VALID,1008.57,VALID,0,VALID,101.872,VALID,0,VALID,25.2532,VALID,352,VALID,0,
2010-04-23, 01:41:04,VALID,1008.6,VALID,0,VALID,101.88,VALID,0,VALID,25.2318,VALID,352,VALID,0,
2010-04-23, 01:42:04,VALID,1008.62,VALID,0,VALID,101.903,VALID,0,VALID,25.2318,VALID,352,VALID,0,
2010-04-23, 01:43:04,VALID,1008.61,VALID,0,VALID,101.918,VALID,0.105969,VALID,25.2318,VALID,352,VALID,0,
2010-04-23, 01:44:04,VALID,1008.6,VALID,0,VALID,101.911,VALID,0.105969,VALID,25.2727,VALID,352,VALID,0,
2010-04-23, 01:45:04,VALID,1008.61,VALID,0,VALID,101.911,VALID,0.105969,VALID,25.2513,VALID,352,VALID,0,
2010-04-23, 01:46:04,VALID,1008.59,VALID,0,VALID,101.918,VALID,0.105969,VALID,25.2727,VALID,352,VALID,0,
2010-04-23, 01:47:04,VALID,1008.56,VALID,0,VALID,101.918,VALID,0,VALID,25.2727,VALID,352,VALID,0,
2010-04-23, 01:48:04,VALID,1008.53,VALID,0,VALID,101.941,VALID,0,VALID,25.2513,VALID,352,VALID,0,
2010-04-23, 01:49:04,VALID,1008.5,VALID,0,VALID,101.933,VALID,0,VALID,25.2727,VALID,352,VALID,0,
2010-04-23, 01:50:04,VALID,1008.51,VALID,0,VALID,101.941,VALID,0.105969,VALID,25.2513,VALID,352,VALID,0,
2010-04-23, 01:51:04,VALID,1008.47,VALID,0,VALID,101.949,VALID,0.105969,VALID,25.2513,VALID,352,VALID,0,
2010-04-23, 01:52:04,VALID,1008.46,VALID,0,VALID,101.933,VALID,0,VALID,25.2727,VALID,352,VALID,0,
2010-04-23, 01:53:04,VALID,1008.46,VALID,0,VALID,101.956,VALID,0,VALID,25.2922,VALID,352,VALID,0,
2010-04-23, 01:54:04,VALID,1008.45,VALID,0,VALID,101.956,VALID,0,VALID,25.2922,VALID,352,VALID,0,
2010-04-23, 01:55:04,VALID,1008.46,VALID,0,VALID,101.964,VALID,0.105969,VALID,25.2922,VALID,352,VALID,0,
2010-04-23, 01:56:04,VALID,1008.49,VALID,0,VALID,101.956,VALID,0,VALID,25.2708,VALID,352,VALID,0,
2010-04-23, 01:57:04,VALID,1008.47,VALID,0,VALID,101.949,VALID,0.105969,VALID,25.2922,VALID,352,VALID,0,
2010-04-23, 01:58:04,VALID,1008.44,VALID,0,VALID,101.949,VALID,0,VALID,25.3117,VALID,352,VALID,0,
2010-04-23, 01:59:04,VALID,1008.45,VALID,0,VALID,101.972,VALID,0,VALID,25.2922,VALID,352,VALID,0,
2010-04-23, 02:00:04,VALID,1008.43,VALID,0,VALID,101.987,VALID,0,VALID,25.2922,VALID,352,VALID,0,
2010-04-23, 02:01:04,VALID,1008.4,VALID,0,VALID,101.964,VALID,0,VALID,25.2727,VALID,352,VALID,0,
2010-04-23, 02:02:04,VALID,1008.37,VALID,0,VALID,101.956,VALID,0,VALID,25.2922,VALID,352,VALID,0,
2010-04-23, 02:03:04,VALID,1008.39,VALID,0,VALID,101.972,VALID,0,VALID,25.2922,VALID,352,VALID,0,
2010-04-23, 02:04:04,VALID,1008.33,VALID,0,VALID,101.964,VALID,0,VALID,25.2727,VALID,352,VALID,0,
2010-04-23, 02:05:04,VALID,1008.3,VALID,0,VALID,101.994,VALID,0,VALID,25.2318,VALID,352,VALID,0,
2010-04-23, 02:06:04,VALID,1008.34,VALID,0,VALID,101.964,VALID,0,VALID,25.2318,VALID,352,VALID,0,
2010-04-23, 02:07:04,VALID,1008.33,VALID,0,VALID,101.987,VALID,0,VALID,25.2337,VALID,352,VALID,0,
2010-04-23, 02:08:04,VALID,1008.37,VALID,0,VALID,101.987,VALID,0,VALID,25.2123,VALID,352,VALID,0,
2010-04-23, 02:09:04,VALID,1008.36,VALID,0,VALID,101.987,VALID,0,VALID,25.2142,VALID,352,VALID,0,
2010-04-23, 02:10:04,VALID,1008.41,VALID,0,VALID,101.994,VALID,0,VALID,25.1928,VALID,352,VALID,0,
2010-04-23, 02:11:04,VALID,1008.41,VALID,0,VALID,101.964,VALID,0,VALID,25.2142,VALID,352,VALID,0,
2010-04-23, 02:12:04,VALID,1008.42,VALID,0,VALID,101.972,VALID,0,VALID,25.1928,VALID,352,VALID,0,
2010-04-23, 02:13:04,VALID,1008.41,VALID,0,VALID,101.979,VALID,0,VALID,25.2123,VALID,352,VALID,0,
2010-04-23, 02:14:04,VALID,1008.41,VALID,0,VALID,101.972,VALID,0,VALID,25.2337,VALID,352,VALID,0,
2010-04-23, 02:15:04,VALID,1008.42,VALID,0,VALID,101.987,VALID,0,VALID,25.2123,VALID,352,VALID,0,
2010-04-23, 02:16:04,VALID,1008.41,VALID,0,VALID,101.979,VALID,0,VALID,25.2123,VALID,352,VALID,0,
2010-04-23, 02:17:04,VALID,1008.42,VALID,0,VALID,101.994,VALID,0,VALID,25.2142,VALID,352,VALID,0,
2010-04-23, 02:18:04,VALID,1008.42,VALID,0,VALID,101.987,VALID,0,VALID,25.1733,VALID,352,VALID,0,
2010-04-23, 02:19:04,VALID,1008.42,VALID,0,VALID,101.979,VALID,0,VALID,25.1733,VALID,352,VALID,0,
2010-04-23, 02:20:04,VALID,1008.45,VALID,0,VALID,101.979,VALID,0,VALID,25.1947,VALID,352,VALID,0,
2010-04-23, 02:21:04,VALID,1008.43,VALID,0,VALID,101.979,VALID,0,VALID,25.1733,VALID,352,VALID,0,
2010-04-23, 02:22:04,VALID,1008.45,VALID,0,VALID,101.972,VALID,0,VALID,25.1947,VALID,352,VALID,0,
2010-04-23, 02:23:04,VALID,1008.47,VALID,0,VALID,101.994,VALID,0,VALID,25.1733,VALID,352,VALID,0,
2010-04-23, 02:24:04,VALID,1008.49,VALID,0,VALID,101.987,VALID,0,VALID,25.1947,VALID,352,VALID,0,
2010-04-23, 02:25:04,VALID,1008.51,VALID,0,VALID,101.987,VALID,0,VALID,25.1538,VALID,352,VALID,0,
2010-04-23, 02:26:04,VALID,1008.51,VALID,0,VALID,102.017,VALID,0,VALID,25.1343,VALID,352,VALID,0,
2010-04-23, 02:27:04,VALID,1008.53,VALID,0,VALID,102.01,VALID,0,VALID,25.1148,VALID,352,VALID,0,
2010-04-23, 02:28:04,VALID,1008.52,VALID,0,VALID,101.979,VALID,0,VALID,25.1343,VALID,352,VALID,0,
2010-04-23, 02:29:04,VALID,1008.55,VALID,0,VALID,101.979,VALID,0,VALID,25.1362,VALID,352,VALID,0,
2010-04-23, 02:30:04,VALID,1008.56,VALID,0,VALID,102.002,VALID,0,VALID,25.1148,VALID,352,VALID,0,
2010-04-23, 02:31:04,VALID,1008.54,VALID,0,VALID,101.994,VALID,0.105969,VALID,25.1148,VALID,352,VALID,0,
2010-04-23, 02:32:04,VALID,1008.55,VALID,0,VALID,101.994,VALID,0,VALID,25.1148,VALID,352,VALID,0,
2010-04-23, 02:33:04,VALID,1008.54,VALID,0,VALID,101.994,VALID,0,VALID,25.1362,VALID,352,VALID,0,
2010-04-23, 02:34:04,VALID,1008.54,VALID,0,VALID,102.002,VALID,0,VALID,25.1362,VALID,352,VALID,0,
2010-04-23, 02:35:04,VALID,1008.55,VALID,0,VALID,101.987,VALID,0,VALID,25.1167,VALID,352,VALID,0,
2010-04-23, 02:36:04,VALID,1008.56,VALID,0,VALID,102.01,VALID,0,VALID,25.1362,VALID,352,VALID,0,
2010-04-23, 02:37:04,VALID,1008.61,VALID,0,VALID,102.002,VALID,0,VALID,25.1362,VALID,352,VALID,0,
2010-04-23, 02:38:04,VALID,1008.62,VALID,0,VALID,101.994,VALID,0.105969,VALID,25.1362,VALID,352,VALID,0,
2010-04-23, 02:39:04,VALID,1008.66,VALID,0,VALID,101.987,VALID,0,VALID,25.1557,VALID,352,VALID,0,
2010-04-23, 02:40:04,VALID,1008.69,VALID,0,VALID,102.002,VALID,0,VALID,25.1538,VALID,352,VALID,0,
2010-04-23, 02:41:04,VALID,1008.69,VALID,0,VALID,101.994,VALID,0,VALID,25.1343,VALID,352,VALID,0,
2010-04-23, 02:42:04,VALID,1008.7,VALID,0,VALID,101.994,VALID,0.105969,VALID,25.1538,VALID,352,VALID,0,
2010-04-23, 02:43:04,VALID,1008.71,VALID,0,VALID,102.025,VALID,0,VALID,25.1752,VALID,352,VALID,0,
2010-04-23, 02:44:04,VALID,1008.72,VALID,0,VALID,102.002,VALID,0,VALID,25.1538,VALID,352,VALID,0,
2010-04-23, 02:45:04,VALID,1008.69,VALID,0,VALID,102.025,VALID,0.105969,VALID,25.1538,VALID,352,VALID,0,
2010-04-23, 02:46:04,VALID,1008.68,VALID,0,VALID,102.017,VALID,0,VALID,25.1343,VALID,352,VALID,0,
2010-04-23, 02:47:04,VALID,1008.64,VALID,0,VALID,102.017,VALID,0,VALID,25.1362,VALID,352,VALID,0,
2010-04-23, 02:48:04,VALID,1008.63,VALID,0,VALID,102.017,VALID,0,VALID,25.1362,VALID,352,VALID,0,
2010-04-23, 02:49:04,VALID,1008.63,VALID,0,VALID,102.025,VALID,0.105969,VALID,25.1148,VALID,352,VALID,0,
2010-04-23, 02:50:04,VALID,1008.61,VALID,0,VALID,102.048,VALID,0,VALID,25.0759,VALID,352,VALID,0,
2010-04-23, 02:51:04,VALID,1008.64,VALID,0,VALID,102.033,VALID,0,VALID,25.0759,VALID,352,VALID,0,
2010-04-23, 02:52:04,VALID,1008.65,VALID,0,VALID,102.048,VALID,0,VALID,25.0778,VALID,352,VALID,0,
2010-04-23, 02:53:04,VALID,1008.65,VALID,0,VALID,102.033,VALID,0.105969,VALID,25.0778,VALID,352,VALID,0,
2010-04-23, 02:54:04,VALID,1008.62,VALID,0,VALID,102.033,VALID,0,VALID,25.0174,VALID,353,VALID,0,
2010-04-23, 02:55:04,VALID,1008.64,VALID,0,VALID,102.071,VALID,0.105969,VALID,24.9979,VALID,11,VALID,0,
2010-04-23, 02:56:04,VALID,1008.63,VALID,0,VALID,102.048,VALID,0,VALID,24.9979,VALID,58,VALID,0,
2010-04-23, 02:57:04,VALID,1008.65,VALID,0,VALID,102.01,VALID,0,VALID,24.9979,VALID,58,VALID,0,
2010-04-23, 02:58:04,VALID,1008.62,VALID,0,VALID,102.025,VALID,0,VALID,25.0388,VALID,59,VALID,0,
2010-04-23, 02:59:04,VALID,1008.63,VALID,0,VALID,102.01,VALID,0,VALID,25.0369,VALID,68,VALID,0,
2010-04-23, 03:00:04,VALID,1008.63,VALID,0,VALID,101.994,VALID,0,VALID,25.0174,VALID,72,VALID,0.475,
2010-04-23, 03:01:04,VALID,1008.62,VALID,0,VALID,102.04,VALID,0,VALID,25.0388,VALID,71,VALID,0,
2010-04-23, 03:02:04,VALID,1008.62,VALID,0,VALID,102.033,VALID,0,VALID,24.9979,VALID,71,VALID,0,
2010-04-23, 03:03:04,VALID,1008.63,VALID,0,VALID,102.033,VALID,0.105969,VALID,25.0193,VALID,71,VALID,0,
2010-04-23, 03:04:04,VALID,1008.64,VALID,0,VALID,102.04,VALID,0.105969,VALID,24.9979,VALID,71,VALID,0,
2010-04-23, 03:05:04,VALID,1008.66,VALID,0,VALID,102.063,VALID,0,VALID,24.9998,VALID,71,VALID,0,
2010-04-23, 03:06:04,VALID,1008.68,VALID,0,VALID,102.055,VALID,0,VALID,24.9784,VALID,71,VALID,0,
2010-04-23, 03:07:04,VALID,1008.71,VALID,0,VALID,102.048,VALID,0,VALID,24.9589,VALID,71,VALID,0,
2010-04-23, 03:08:04,VALID,1008.72,VALID,0,VALID,102.048,VALID,0,VALID,24.9803,VALID,71,VALID,0,
2010-04-23, 03:09:04,VALID,1008.71,VALID,0,VALID,102.055,VALID,0,VALID,24.9589,VALID,71,VALID,0,
2010-04-23, 03:10:04,VALID,1008.71,VALID,0,VALID,102.048,VALID,0,VALID,24.9608,VALID,72,VALID,0,
2010-04-23, 03:11:04,VALID,1008.7,VALID,0,VALID,102.033,VALID,0,VALID,24.9589,VALID,72,VALID,0,
2010-04-23, 03:12:04,VALID,1008.71,VALID,0,VALID,102.025,VALID,0,VALID,24.9803,VALID,72,VALID,0,
2010-04-23, 03:13:04,VALID,1008.75,VALID,0,VALID,102.033,VALID,0,VALID,24.9803,VALID,74,VALID,0,
2010-04-23, 03:14:04,VALID,1008.73,VALID,0,VALID,102.055,VALID,0,VALID,24.9589,VALID,74,VALID,0,
2010-04-23, 03:15:04,VALID,1008.78,VALID,0,VALID,102.033,VALID,0,VALID,24.9784,VALID,74,VALID,0,
2010-04-23, 03:16:04,VALID,1008.79,VALID,0,VALID,102.033,VALID,0.105969,VALID,24.9998,VALID,74,VALID,0,
2010-04-23, 03:17:04,VALID,1008.8,VALID,0,VALID,102.048,VALID,0.105969,VALID,24.9784,VALID,74,VALID,0,
2010-04-23, 03:18:04,VALID,1008.83,VALID,0,VALID,102.04,VALID,0.105969,VALID,24.9979,VALID,74,VALID,0,
2010-04-23, 03:19:04,VALID,1008.83,VALID,0,VALID,102.04,VALID,0,VALID,24.9979,VALID,74,VALID,0,
2010-04-23, 03:20:04,VALID,1008.82,VALID,0,VALID,102.063,VALID,0,VALID,24.9784,VALID,74,VALID,0,
2010-04-23, 03:21:04,VALID,1008.83,VALID,0,VALID,102.071,VALID,0,VALID,24.9589,VALID,74,VALID,0,
2010-04-23, 03:22:04,VALID,1008.82,VALID,0,VALID,102.086,VALID,0,VALID,24.9413,VALID,74,VALID,0,
2010-04-23, 03:23:04,VALID,1008.81,VALID,0,VALID,102.078,VALID,0,VALID,24.9004,VALID,74,VALID,0,
2010-04-23, 03:24:04,VALID,1008.8,VALID,0,VALID,102.063,VALID,0,VALID,24.9004,VALID,74,VALID,0,
2010-04-23, 03:25:04,VALID,1008.77,VALID,0,VALID,102.063,VALID,0,VALID,24.8809,VALID,74,VALID,0,
2010-04-23, 03:26:04,VALID,1008.78,VALID,0,VALID,102.071,VALID,0,VALID,24.8809,VALID,74,VALID,0,
2010-04-23, 03:27:04,VALID,1008.76,VALID,0,VALID,102.063,VALID,0.105969,VALID,24.8615,VALID,74,VALID,0,
2010-04-23, 03:28:04,VALID,1008.72,VALID,0,VALID,102.063,VALID,0.105969,VALID,24.842,VALID,74,VALID,0,
2010-04-23, 03:29:04,VALID,1008.75,VALID,0,VALID,102.055,VALID,0,VALID,24.842,VALID,74,VALID,0,
2010-04-23, 03:30:04,VALID,1008.7,VALID,0,VALID,102.063,VALID,0,VALID,24.8438,VALID,74,VALID,0,
2010-04-23, 03:31:04,VALID,1008.68,VALID,0,VALID,102.055,VALID,0.105969,VALID,24.842,VALID,74,VALID,0,
2010-04-23, 03:32:04,VALID,1008.65,VALID,0,VALID,102.063,VALID,0.105969,VALID,24.842,VALID,74,VALID,0,
2010-04-23, 03:33:04,VALID,1008.63,VALID,0,VALID,102.063,VALID,0.105969,VALID,24.8615,VALID,74,VALID,0,
2010-04-23, 03:34:04,VALID,1008.62,VALID,0,VALID,102.063,VALID,0.105969,VALID,24.842,VALID,74,VALID,0,
2010-04-23, 03:35:04,VALID,1008.62,VALID,0,VALID,102.048,VALID,0,VALID,24.8615,VALID,74,VALID,0,
2010-04-23, 03:36:04,VALID,1008.6,VALID,0,VALID,102.017,VALID,0,VALID,24.8828,VALID,74,VALID,0,
2010-04-23, 03:37:04,VALID,1008.58,VALID,0,VALID,102.048,VALID,0.105969,VALID,24.8615,VALID,74,VALID,0,
2010-04-23, 03:38:04,VALID,1008.59,VALID,0,VALID,102.055,VALID,0.105969,VALID,24.8809,VALID,74,VALID,0,
2010-04-23, 03:39:04,VALID,1008.59,VALID,0,VALID,102.055,VALID,0.105969,VALID,24.8615,VALID,74,VALID,0,
2010-04-23, 03:40:04,VALID,1008.57,VALID,0,VALID,102.055,VALID,0.105969,VALID,24.842,VALID,74,VALID,0,
2010-04-23, 03:41:04,VALID,1008.55,VALID,0,VALID,102.055,VALID,0.105969,VALID,24.842,VALID,74,VALID,0,
2010-04-23, 03:42:04,VALID,1008.54,VALID,0,VALID,102.055,VALID,0.105969,VALID,24.8225,VALID,74,VALID,0,
2010-04-23, 03:43:04,VALID,1008.53,VALID,0,VALID,102.04,VALID,0.105969,VALID,24.8225,VALID,136,VALID,0,
2010-04-23, 03:44:04,VALID,1008.55,VALID,0,VALID,102.04,VALID,0,VALID,24.803,VALID,167,VALID,0,
2010-04-23, 03:45:04,VALID,1008.56,VALID,0,VALID,102.04,VALID,0.105969,VALID,24.8225,VALID,167,VALID,0,
2010-04-23, 03:46:04,VALID,1008.52,VALID,0,VALID,102.033,VALID,0.105969,VALID,24.8225,VALID,167,VALID,0,
2010-04-23, 03:47:04,VALID,1008.51,VALID,0,VALID,102.048,VALID,0.105969,VALID,24.8225,VALID,167,VALID,0,
2010-04-23, 03:48:04,VALID,1008.53,VALID,0,VALID,102.048,VALID,0,VALID,24.803,VALID,167,VALID,0,
2010-04-23, 03:49:04,VALID,1008.52,VALID,0,VALID,102.071,VALID,0,VALID,24.8244,VALID,167,VALID,0,
2010-04-23, 03:50:04,VALID,1008.53,VALID,0,VALID,102.048,VALID,0.105969,VALID,24.8049,VALID,167,VALID,0,
2010-04-23, 03:51:04,VALID,1008.56,VALID,0,VALID,102.071,VALID,0,VALID,24.8049,VALID,167,VALID,0,
2010-04-23, 03:52:04,VALID,1008.54,VALID,0,VALID,102.055,VALID,0.105969,VALID,24.764,VALID,167,VALID,0,
2010-04-23, 03:53:04,VALID,1008.54,VALID,0,VALID,102.025,VALID,0.105969,VALID,24.8049,VALID,167,VALID,0,
2010-04-23, 03:54:04,VALID,1008.56,VALID,0,VALID,102.025,VALID,0.105969,VALID,24.8244,VALID,167,VALID,0,
2010-04-23, 03:55:04,VALID,1008.56,VALID,0,VALID,102.01,VALID,0,VALID,24.803,VALID,167,VALID,0,